PAA8PZ LROP-LRIA

Flight info

Callsign PAA8PZ
Flight time 0h 38m
Altitude 29000
Route DENAK T74 ISI
Aircraft L101/H-SDFGHIRWXY/S

Departure

Time 2026-04-23 21:34
Airport Bucharest Henri Coandă International Airport (LROP)

Arrival

Time 2026-04-23 22:13
Airport Iaşi International Airport (LRIA)
Time Latitude Longitude Altitude Speed Heading
2026-04-23 21:09 44.57045 26.08248 321 ft 0 kts 307°
2026-04-23 21:20 44.57043 26.08251 321 ft 2 kts 307°
2026-04-23 21:21 44.57027 26.08281 321 ft 3 kts 306°
2026-04-23 21:21 44.57011 26.08312 321 ft 3 kts 304°
2026-04-23 21:21 44.56997 26.08341 321 ft 3 kts 303°
2026-04-23 21:21 44.56990 26.08366 318 ft 4 kts 233°
2026-04-23 21:22 44.57010 26.08383 317 ft 4 kts 190°
2026-04-23 21:22 44.57032 26.08385 319 ft 0 kts 174°
2026-04-23 21:25 44.57015 26.08387 318 ft 5 kts 174°
2026-04-23 21:25 44.56968 26.08394 321 ft 9 kts 174°
2026-04-23 21:25 44.56911 26.08419 321 ft 8 kts 141°
2026-04-23 21:26 44.56899 26.08493 323 ft 8 kts 84°
2026-04-23 21:26 44.56939 26.08542 319 ft 8 kts 13°
2026-04-23 21:26 44.57000 26.08536 319 ft 11 kts 355°
2026-04-23 21:26 44.57093 26.08524 318 ft 16 kts 355°
2026-04-23 21:27 44.57159 26.08514 319 ft 10 kts 353°
2026-04-23 21:27 44.57233 26.08503 321 ft 11 kts 354°
2026-04-23 21:27 44.57316 26.08491 324 ft 13 kts 354°
2026-04-23 21:27 44.57404 26.08477 323 ft 11 kts 354°
2026-04-23 21:28 44.57483 26.08491 325 ft 12 kts 42°
2026-04-23 21:28 44.57503 26.08613 327 ft 11 kts 84°
2026-04-23 21:28 44.57513 26.08738 325 ft 15 kts 84°
2026-04-23 21:28 44.57526 26.08906 322 ft 16 kts 84°
2026-04-23 21:29 44.57539 26.09075 322 ft 20 kts 84°
2026-04-23 21:29 44.57554 26.09287 319 ft 24 kts 84°
2026-04-23 21:29 44.57571 26.09501 323 ft 22 kts 83°
2026-04-23 21:29 44.57588 26.09726 321 ft 25 kts 84°
2026-04-23 21:30 44.57607 26.09976 328 ft 26 kts 84°
2026-04-23 21:30 44.57626 26.10227 322 ft 26 kts 84°
2026-04-23 21:30 44.57646 26.10493 325 ft 26 kts 84°
2026-04-23 21:30 44.57664 26.10733 317 ft 19 kts 84°
2026-04-23 21:31 44.57680 26.10941 319 ft 23 kts 84°
2026-04-23 21:31 44.57698 26.11184 314 ft 27 kts 84°
2026-04-23 21:31 44.57717 26.11449 319 ft 27 kts 84°
2026-04-23 21:31 44.57735 26.11680 322 ft 23 kts 84°
2026-04-23 21:32 44.57751 26.11894 323 ft 22 kts 84°
2026-04-23 21:32 44.57768 26.12109 322 ft 23 kts 84°
2026-04-23 21:32 44.57786 26.12351 318 ft 27 kts 84°
2026-04-23 21:32 44.57800 26.12540 315 ft 27 kts 84°
2026-04-23 21:33 44.57813 26.12710 315 ft 11 kts 84°
2026-04-23 21:33 44.57829 26.12832 314 ft 14 kts 55°
2026-04-23 21:33 44.57896 26.12841 314 ft 9 kts 329°
2026-04-23 21:33 44.57955 26.12781 314 ft 10 kts 323°
2026-04-23 21:34 44.57985 26.12723 315 ft 7 kts 275°
2026-04-23 21:34 44.57978 26.12611 318 ft 33 kts 263°
2026-04-23 21:34 44.57916 26.11771 320 ft 136 kts 263°
2026-04-23 21:34 44.57788 26.10173 943 ft 173 kts 264°
2026-04-23 21:35 44.57577 26.07857 2643 ft 196 kts 264°
2026-04-23 21:35 44.57450 26.06519 3226 ft 220 kts 264°
2026-04-23 21:35 44.57235 26.04201 4143 ft 262 kts 265°
2026-04-23 21:35 44.57022 26.01463 5164 ft 299 kts 271°
2026-04-23 21:36 44.58467 25.96312 6404 ft 290 kts 319°
2026-04-23 21:36 44.60200 25.94947 6535 ft 286 kts 346°
2026-04-23 21:36 44.62174 25.94922 7090 ft 288 kts 12°
2026-04-23 21:37 44.64035 25.95956 8358 ft 286 kts 24°
2026-04-23 21:37 44.65821 25.97142 10327 ft 282 kts 22°
2026-04-23 21:37 44.67650 25.98150 12151 ft 285 kts 17°
2026-04-23 21:37 44.69593 25.99104 13401 ft 309 kts 15°
2026-04-23 21:38 44.71700 26.00122 13818 ft 326 kts 16°
2026-04-23 21:38 44.73857 26.01193 13933 ft 330 kts 16°
2026-04-23 21:38 44.76057 26.02305 14065 ft 348 kts 17°
2026-04-23 21:38 44.78416 26.03490 14186 ft 371 kts 17°
2026-04-23 21:39 44.80908 26.04741 14503 ft 383 kts 17°
2026-04-23 21:39 44.83397 26.06003 15486 ft 377 kts 17°
2026-04-23 21:39 44.85838 26.07247 16234 ft 380 kts 17°
2026-04-23 21:39 44.88364 26.08528 16803 ft 387 kts 17°
2026-04-23 21:40 44.90887 26.09810 17678 ft 387 kts 17°
2026-04-23 21:40 44.93438 26.11108 18381 ft 390 kts 17°
2026-04-23 21:40 44.95982 26.12408 19186 ft 390 kts 17°
2026-04-23 21:40 44.98543 26.13716 19919 ft 392 kts 17°
2026-04-23 21:41 45.01119 26.15027 20673 ft 394 kts 16°
2026-04-23 21:41 45.03724 26.16355 21397 ft 397 kts 16°
2026-04-23 21:41 45.06323 26.17683 22115 ft 399 kts 16°
2026-04-23 21:41 45.08945 26.19026 22812 ft 401 kts 16°
2026-04-23 21:42 45.11595 26.20375 23349 ft 407 kts 16°
2026-04-23 21:42 45.14266 26.21740 23937 ft 410 kts 16°
2026-04-23 21:42 45.16962 26.23126 24495 ft 413 kts 16°
2026-04-23 21:42 45.19670 26.24520 25056 ft 416 kts 16°
2026-04-23 21:43 45.22383 26.25914 25348 ft 424 kts 17°
2026-04-23 21:43 45.25201 26.27360 25463 ft 436 kts 17°
2026-04-23 21:43 45.28092 26.28845 25714 ft 444 kts 17°
2026-04-23 21:43 45.30984 26.30340 26408 ft 441 kts 17°
2026-04-23 21:44 45.33860 26.31830 26983 ft 441 kts 17°
2026-04-23 21:44 45.36755 26.33331 27633 ft 440 kts 17°
2026-04-23 21:44 45.39633 26.34825 28342 ft 439 kts 17°
2026-04-23 21:44 45.42453 26.36295 28835 ft 424 kts 17°
2026-04-23 21:45 45.45288 26.37769 29021 ft 439 kts 17°
2026-04-23 21:45 45.48157 26.39260 29831 ft 440 kts 17°
2026-04-23 21:45 45.51059 26.40770 30232 ft 440 kts 17°
2026-04-23 21:45 45.53897 26.42254 30117 ft 436 kts 17°
2026-04-23 21:46 45.56775 26.43762 29947 ft 442 kts 17°
2026-04-23 21:46 45.59631 26.45256 29732 ft 443 kts 17°
2026-04-23 21:46 45.62527 26.46772 29332 ft 443 kts 17°
2026-04-23 21:46 45.65411 26.48283 28725 ft 439 kts 17°
2026-04-23 21:47 45.68267 26.49785 28145 ft 435 kts 17°
2026-04-23 21:47 45.71092 26.51274 27577 ft 430 kts 17°
2026-04-23 21:47 45.73887 26.52747 27018 ft 426 kts 17°
2026-04-23 21:47 45.76662 26.54211 26472 ft 422 kts 17°
2026-04-23 21:48 45.79409 26.55660 25945 ft 418 kts 17°
2026-04-23 21:48 45.82122 26.57094 25425 ft 414 kts 17°
2026-04-23 21:48 45.84786 26.58505 24919 ft 411 kts 17°
2026-04-23 21:48 45.87458 26.59920 24413 ft 407 kts 16°
2026-04-23 21:49 45.90109 26.61326 23925 ft 404 kts 16°
2026-04-23 21:49 45.92741 26.62724 23437 ft 402 kts 16°
2026-04-23 21:49 45.95364 26.64109 22851 ft 399 kts 16°
2026-04-23 21:49 45.97953 26.65479 22273 ft 396 kts 16°
2026-04-23 21:50 46.00530 26.66850 21712 ft 392 kts 16°
2026-04-23 21:50 46.03079 26.68209 21150 ft 389 kts 17°
2026-04-23 21:50 46.05569 26.69538 20615 ft 385 kts 17°
2026-04-23 21:50 46.08064 26.70871 20085 ft 376 kts 17°
2026-04-23 21:51 46.10454 26.72155 19592 ft 357 kts 16°
2026-04-23 21:51 46.12727 26.73381 19178 ft 338 kts 16°
2026-04-23 21:51 46.14919 26.74559 18789 ft 335 kts 16°
2026-04-23 21:51 46.17098 26.75723 18380 ft 334 kts 16°
2026-04-23 21:52 46.19272 26.76885 17943 ft 332 kts 16°
2026-04-23 21:52 46.21423 26.78038 17491 ft 329 kts 16°
2026-04-23 21:52 46.23568 26.79189 17037 ft 327 kts 16°
2026-04-23 21:52 46.25700 26.80334 16587 ft 326 kts 16°
2026-04-23 21:53 46.27820 26.81474 16146 ft 324 kts 16°
2026-04-23 21:53 46.29923 26.82606 15727 ft 321 kts 16°
2026-04-23 21:53 46.32008 26.83729 15303 ft 320 kts 16°
2026-04-23 21:53 46.34095 26.84850 14865 ft 319 kts 16°
2026-04-23 21:54 46.36169 26.85964 14449 ft 317 kts 15°
2026-04-23 21:54 46.38230 26.87073 14045 ft 315 kts 15°
2026-04-23 21:54 46.40275 26.88178 13639 ft 313 kts 16°
2026-04-23 21:54 46.42313 26.89279 13159 ft 312 kts 16°
2026-04-23 21:55 46.44320 26.90363 12699 ft 311 kts 16°
2026-04-23 21:55 46.46346 26.91459 12218 ft 310 kts 16°
2026-04-23 21:55 46.48357 26.92549 11720 ft 308 kts 15°
2026-04-23 21:55 46.50358 26.93637 11250 ft 304 kts 15°
2026-04-23 21:56 46.52308 26.94701 11049 ft 291 kts 15°
2026-04-23 21:56 46.54162 26.95720 10953 ft 282 kts 15°
2026-04-23 21:56 46.55999 26.96721 10917 ft 280 kts 15°
2026-04-23 21:56 46.57832 26.97715 10637 ft 281 kts 15°
2026-04-23 21:57 46.59636 26.98693 10232 ft 279 kts 15°
2026-04-23 21:57 46.61445 26.99680 9850 ft 277 kts 16°
2026-04-23 21:57 46.63149 27.01043 9369 ft 285 kts 34°
2026-04-23 21:57 46.64405 27.03304 8928 ft 287 kts 53°
2026-04-23 21:58 46.65322 27.05859 8515 ft 283 kts 56°
2026-04-23 21:58 46.66239 27.08371 8097 ft 279 kts 53°
2026-04-23 21:58 46.67217 27.10787 7688 ft 276 kts 51°
2026-04-23 21:58 46.68218 27.13164 7283 ft 274 kts 52°
2026-04-23 21:59 46.69201 27.15523 7071 ft 271 kts 52°
2026-04-23 21:59 46.70169 27.17876 6948 ft 270 kts 52°
2026-04-23 21:59 46.71130 27.20220 6907 ft 270 kts 52°
2026-04-23 22:00 46.73060 27.24913 6847 ft 270 kts 52°
2026-04-23 22:00 46.74021 27.27257 6643 ft 268 kts 52°
2026-04-23 22:00 46.74978 27.29595 6547 ft 268 kts 52°
2026-04-23 22:00 46.75922 27.31897 6429 ft 267 kts 53°
2026-04-23 22:01 46.76878 27.34232 6241 ft 267 kts 53°
2026-04-23 22:01 46.77826 27.36556 6079 ft 267 kts 53°
2026-04-23 22:01 46.78772 27.38876 5941 ft 265 kts 53°
2026-04-23 22:01 46.79709 27.41180 5990 ft 264 kts 53°
2026-04-23 22:02 46.80653 27.43500 6024 ft 266 kts 52°
2026-04-23 22:02 46.81585 27.45804 5851 ft 258 kts 52°
2026-04-23 22:02 46.82465 27.48001 5655 ft 243 kts 52°
2026-04-23 22:02 46.83318 27.50119 5499 ft 242 kts 52°
2026-04-23 22:03 46.84177 27.52225 5314 ft 241 kts 52°
2026-04-23 22:03 46.85030 27.54322 5152 ft 240 kts 52°
2026-04-23 22:03 46.85879 27.56418 4926 ft 239 kts 52°
2026-04-23 22:03 46.86727 27.58507 4652 ft 237 kts 53°
2026-04-23 22:04 46.87565 27.60573 4383 ft 236 kts 53°
2026-04-23 22:04 46.88394 27.62632 4116 ft 234 kts 53°
2026-04-23 22:04 46.89218 27.64671 3861 ft 232 kts 53°
2026-04-23 22:04 46.90046 27.66711 3633 ft 233 kts 53°
2026-04-23 22:05 46.90870 27.68736 3365 ft 229 kts 54°
2026-04-23 22:05 46.91654 27.70698 3146 ft 219 kts 54°
2026-04-23 22:05 46.92412 27.72611 3042 ft 213 kts 54°
2026-04-23 22:05 46.93115 27.74395 3015 ft 201 kts 54°
2026-04-23 22:06 46.93810 27.76138 2980 ft 197 kts 54°
2026-04-23 22:06 46.94540 27.77832 2991 ft 194 kts 46°
2026-04-23 22:06 46.95618 27.78917 2959 ft 187 kts 14°
2026-04-23 22:06 46.96900 27.79071 3004 ft 185 kts
2026-04-23 22:07 46.98189 27.79267 3010 ft 187 kts
2026-04-23 22:07 46.99434 27.79712 2997 ft 187 kts 12°
2026-04-23 22:07 47.00661 27.80058 3006 ft 171 kts
2026-04-23 22:07 47.01831 27.80199 2963 ft 167 kts
2026-04-23 22:08 47.02981 27.80143 2963 ft 165 kts 355°
2026-04-23 22:08 47.04106 27.79825 2972 ft 166 kts 342°
2026-04-23 22:08 47.05138 27.79038 2947 ft 168 kts 333°
2026-04-23 22:08 47.05992 27.77857 2761 ft 176 kts 306°
2026-04-23 22:09 47.06332 27.76099 2597 ft 184 kts 284°
2026-04-23 22:09 47.06395 27.74232 2459 ft 185 kts 278°
2026-04-23 22:09 47.06611 27.72479 2280 ft 165 kts 302°
2026-04-23 22:09 47.07348 27.71262 2301 ft 159 kts 324°
2026-04-23 22:10 47.08237 27.70302 2331 ft 158 kts 330°
2026-04-23 22:10 47.09187 27.69499 2299 ft 158 kts 336°
2026-04-23 22:10 47.10168 27.68823 2186 ft 150 kts 339°
2026-04-23 22:10 47.11104 27.68220 1930 ft 145 kts 339°
2026-04-23 22:11 47.12005 27.67551 1720 ft 146 kts 332°
2026-04-23 22:11 47.12835 27.66756 1403 ft 138 kts 329°
2026-04-23 22:11 47.13609 27.66058 1032 ft 127 kts 330°
2026-04-23 22:11 47.14390 27.65361 784 ft 141 kts 328°
2026-04-23 22:12 47.15238 27.64587 726 ft 149 kts 326°
2026-04-23 22:12 47.16128 27.63789 537 ft 149 kts 327°
2026-04-23 22:12 47.16977 27.63027 389 ft 140 kts 328°
2026-04-23 22:12 47.17711 27.62376 364 ft 96 kts 326°
2026-04-23 22:13 47.18161 27.61975 381 ft 57 kts 328°
2026-04-23 22:13 47.18282 27.61853 386 ft 12 kts 324°
2026-04-23 22:13 47.18330 27.61812 388 ft 1 kts 15°
2026-04-23 22:13 47.18332 27.61819 388 ft 0 kts 59°
2026-04-23 22:14 47.18331 27.61823 388 ft 1 kts 83°
2026-04-23 22:14 47.18328 27.61829 388 ft 1 kts 119°
2026-04-23 22:14 47.18321 27.61833 388 ft 4 kts 150°
2026-04-23 22:14 47.18266 27.61880 385 ft 14 kts 148°
2026-04-23 22:15 47.18151 27.61983 380 ft 23 kts 150°
2026-04-23 22:15 47.17993 27.62117 374 ft 30 kts 148°
2026-04-23 22:15 47.17801 27.62293 373 ft 35 kts 150°
2026-04-23 22:15 47.17581 27.62487 364 ft 38 kts 148°
2026-04-23 22:16 47.17441 27.62613 356 ft 15 kts 148°
2026-04-23 22:16 47.17374 27.62634 351 ft 7 kts 225°
2026-04-23 22:16 47.17347 27.62579 362 ft 5 kts 238°
2026-04-23 22:16 47.17330 27.62538 361 ft 4 kts 238°
2026-04-23 22:17 47.17315 27.62503 364 ft 4 kts 238°
2026-04-23 22:17 47.17297 27.62459 362 ft 6 kts 238°
2026-04-23 22:17 47.17271 27.62384 364 ft 9 kts 257°
2026-04-23 22:17 47.17275 27.62323 372 ft 3 kts 293°
2026-04-23 22:18 47.17285 27.62303 370 ft 1 kts 310°
2026-04-23 22:18 47.17285 27.62302 370 ft 0 kts 310°
2026-04-23 22:18 47.17294 27.62289 371 ft 2 kts 317°
2026-04-23 22:18 47.17308 27.62273 372 ft 3 kts 324°
2026-04-23 22:19 47.17321 27.62260 373 ft 4 kts 324°
2026-04-23 22:19 47.17330 27.62230 373 ft 2 kts 268°
2026-04-23 22:19 47.17324 27.62213 374 ft 2 kts 236°
2026-04-23 22:19 47.17305 27.62169 374 ft 5 kts 238°
2026-04-23 22:20 47.17302 27.62162 374 ft 0 kts 238°